When you browse on this site, cookies collect data to enhance your experience and personalize the content and advertising you see.
Visit our Privacy Policy to learn more. By continuing to use the site, you agree to this use of cookies and data.
  • In Portugal
  • List of Countries
  • For 7 days
  • Water Temperature
  • Satellite Maps
  • Weather Map
  • Weather Widgets
  • user-avatar
    Login

    Hourly Weather Homyakova

    Today, 21 February, Thursday

    Time Temperature Precipitation Wind Pressure Humidity
    00:00 -2°C° 0.4 mm 6 mps 732 mmHg 91%
    01:00 -2°C° 0.4 mm 6 mps 731 mmHg 90%
    02:00 -1°C° 0 mm 4 mps 731 mmHg 91%
    03:00 -2°C° 0.2 mm 5 mps 731 mmHg 89%
    04:00 -5°C° 0.2 mm 5 mps 731 mmHg 87%
    05:00 -6°C° 0.2 mm 6 mps 731 mmHg 85%
    06:00 -6°C° 0.1 mm 6 mps 731 mmHg 84%
    07:00 -8°C° 0.1 mm 6 mps 731 mmHg 84%
    08:00 -7°C° 0 mm 5 mps 732 mmHg 83%
    09:00 -8°C° 0.1 mm 6 mps 732 mmHg 82%
    10:00 -6°C° 0.1 mm 6 mps 733 mmHg 81%
    11:00 -7°C° 0.1 mm 7 mps 733 mmHg 80%
    12:00 -7°C° 0.1 mm 7 mps 733 mmHg 79%
    13:00 -8°C° 0.1 mm 7 mps 733 mmHg 77%
    14:00 -8°C° 0.1 mm 7 mps 734 mmHg 76%
    15:00 -8°C° 0.1 mm 6 mps 734 mmHg 77%
    16:00 -9°C° 0.1 mm 6 mps 734 mmHg 77%
    17:00 -10°C° 0.1 mm 6 mps 735 mmHg 78%
    18:00 -10°C° 0.1 mm 6 mps 735 mmHg 79%
    19:00 -10°C° 0.1 mm 6 mps 736 mmHg 79%
    20:00 -10°C° 0.1 mm 6 mps 736 mmHg 80%
    21:00 -11°C° 0 mm 6 mps 736 mmHg 80%
    22:00 -11°C° 0 mm 6 mps 737 mmHg 80%
    23:00 -12°C° 0 mm 6 mps 737 mmHg 81%

    Tomorrow, 22 February, Friday

    Time Temperature Precipitation Wind Pressure Humidity
    00:00 -12°C° 0 mm 6 mps 737 mmHg 81%
    01:00 -12°C° 0 mm 6 mps 738 mmHg 81%
    02:00 -14°C° 0 mm 6 mps 738 mmHg 81%
    03:00 -14°C° 0 mm 6 mps 738 mmHg 81%
    04:00 -14°C° 0 mm 6 mps 739 mmHg 82%
    05:00 -15°C° 0 mm 6 mps 739 mmHg 82%
    06:00 -15°C° 0 mm 6 mps 739 mmHg 82%
    07:00 -15°C° 0 mm 6 mps 740 mmHg 82%
    08:00 -14°C° 0 mm 5 mps 740 mmHg 83%
    09:00 -14°C° 0.1 mm 6 mps 741 mmHg 82%
    10:00 -14°C° 0.1 mm 6 mps 741 mmHg 81%
    11:00 -14°C° 0.1 mm 6 mps 742 mmHg 80%
    12:00 -12°C° 0.1 mm 6 mps 742 mmHg 80%
    13:00 -12°C° 0.1 mm 6 mps 743 mmHg 80%
    14:00 -12°C° 0.1 mm 6 mps 743 mmHg 80%
    15:00 -12°C° 0.1 mm 6 mps 744 mmHg 81%
    16:00 -12°C° 0.1 mm 5 mps 745 mmHg 81%
    17:00 -13°C° 0.1 mm 5 mps 745 mmHg 82%
    18:00 -13°C° 0 mm 5 mps 746 mmHg 83%
    19:00 -13°C° 0 mm 5 mps 747 mmHg 83%
    20:00 -14°C° 0 mm 5 mps 748 mmHg 84%
    21:00 -14°C° 0 mm 5 mps 748 mmHg 84%
    22:00 -14°C° 0 mm 5 mps 749 mmHg 84%
    23:00 -14°C° 0 mm 5 mps 749 mmHg 84%

    Day after tomorrow, 23 February, Saturday

    Time Temperature Precipitation Wind Pressure Humidity
    00:00 -15°C° 0 mm 5 mps 750 mmHg 84%
    01:00 -15°C° 0 mm 4 mps 750 mmHg 85%
    02:00 -16°C° 0 mm 4 mps 751 mmHg 86%
    03:00 -16°C° 0 mm 4 mps 751 mmHg 86%
    04:00 -16°C° 0 mm 4 mps 752 mmHg 87%
    05:00 -16°C° 0 mm 4 mps 752 mmHg 88%
    06:00 -16°C° 0 mm 4 mps 753 mmHg 88%
    07:00 -16°C° 0 mm 4 mps 754 mmHg 88%
    08:00 -15°C° 0 mm 3 mps 754 mmHg 89%
    09:00 -14°C° 0 mm 3 mps 754 mmHg 87%
    10:00 -14°C° 0 mm 3 mps 755 mmHg 85%
    11:00 -13°C° 0 mm 3 mps 755 mmHg 83%
    12:00 -12°C° 0 mm 3 mps 755 mmHg 82%
    13:00 -12°C° 0 mm 3 mps 755 mmHg 81%
    14:00 -10°C° 0 mm 3 mps 755 mmHg 80%
    15:00 -12°C° 0 mm 3 mps 755 mmHg 83%
    16:00 -12°C° 0 mm 2 mps 754 mmHg 85%
    17:00 -13°C° 0 mm 2 mps 754 mmHg 87%
    18:00 -13°C° 0 mm 2 mps 754 mmHg 87%
    19:00 -13°C° 0 mm 2 mps 754 mmHg 87%
    20:00 -13°C° 0 mm 2 mps 754 mmHg 88%
    21:00 -12°C° 0 mm 2 mps 754 mmHg 87%
    22:00 -12°C° 0 mm 2 mps 754 mmHg 87%
    23:00 -12°C° 0 mm 2 mps 754 mmHg 87%

    24 February, Sunday

    Time Temperature Precipitation Wind Pressure Humidity
    00:00 -12°C° 0 mm 2 mps 754 mmHg 88%
    01:00 -12°C° 0 mm 3 mps 753 mmHg 89%
    02:00 -12°C° 0 mm 3 mps 753 mmHg 90%
    03:00 -12°C° 0 mm 3 mps 752 mmHg 90%
    04:00 -12°C° 0 mm 3 mps 752 mmHg 91%
    05:00 -11°C° 0 mm 4 mps 751 mmHg 92%
    06:00 -11°C° 0.1 mm 4 mps 751 mmHg 92%
    07:00 -10°C° 0.1 mm 4 mps 751 mmHg 92%
    08:00 -9°C° 0.1 mm 4 mps 751 mmHg 92%
    09:00 -8°C° 0.1 mm 4 mps 751 mmHg 91%
    10:00 -8°C° 0.1 mm 4 mps 751 mmHg 91%
    11:00 -7°C° 0.1 mm 4 mps 751 mmHg 90%
    12:00 -5°C° 0.1 mm 4 mps 750 mmHg 91%
    13:00 -4°C° 0.1 mm 4 mps 750 mmHg 91%
    14:00 -3°C° 0.1 mm 4 mps 750 mmHg 91%
    15:00 -3°C° 0 mm 4 mps 750 mmHg 92%
    16:00 -3°C° 0 mm 4 mps 750 mmHg 92%
    17:00 -3°C° 0 mm 4 mps 750 mmHg 93%
    18:00 -3°C° 0 mm 4 mps 750 mmHg 94%
    19:00 -3°C° 0 mm 4 mps 750 mmHg 94%
    20:00 -3°C° 0 mm 4 mps 750 mmHg 95%
    21:00 -2°C° 0 mm 3 mps 749 mmHg 95%
    22:00 -2°C° 0 mm 3 mps 749 mmHg 95%
    23:00 -2°C° 0 mm 3 mps 749 mmHg 95%

    25 February, Monday

    Time Temperature Precipitation Wind Pressure Humidity
    00:00 -3°C° 0 mm 4 mps 749 mmHg 95%
    01:00 -3°C° 0 mm 4 mps 748 mmHg 95%
    02:00 -3°C° 0 mm 4 mps 748 mmHg 95%
    03:00 -2°C° 0.1 mm 4 mps 747 mmHg 95%
    04:00 -2°C° 0.1 mm 4 mps 747 mmHg 94%
    05:00 -2°C° 0.1 mm 5 mps 746 mmHg 94%
    06:00 -2°C° 0 mm 5 mps 746 mmHg 93%
    07:00 -2°C° 0 mm 5 mps 745 mmHg 93%
    08:00 -1°C° 0 mm 5 mps 745 mmHg 92%
    09:00 -1°C° 0 mm 5 mps 745 mmHg 94%
    10:00 -1°C° 0 mm 5 mps 744 mmHg 95%
    11:00 -1°C° 0 mm 5 mps 744 mmHg 96%
    12:00 -1°C° 0 mm 5 mps 743 mmHg 95%
    13:00 -1°C° 0 mm 5 mps 743 mmHg 95%
    14:00 -1°C° 0 mm 5 mps 742 mmHg 95%
    15:00 -1°C° 0 mm 5 mps 742 mmHg 92%
    16:00 -1°C° 0 mm 5 mps 742 mmHg 88%
    17:00 -1°C° 0 mm 5 mps 742 mmHg 85%
    18:00 -1°C° 0 mm 5 mps 741 mmHg 86%
    19:00 -2°C° 0 mm 5 mps 741 mmHg 86%
    20:00 -2°C° 0 mm 5 mps 741 mmHg 87%
    21:00 -2°C° 0 mm 5 mps 741 mmHg 86%
    22:00 -2°C° 0 mm 5 mps 740 mmHg 85%
    23:00 -2°C° 0 mm 5 mps 740 mmHg 84%

    26 February, Tuesday

    Time Temperature Precipitation Wind Pressure Humidity
    00:00 -4°C° 0.1 mm 5 mps 740 mmHg 85%
    01:00 -4°C° 0.1 mm 6 mps 739 mmHg 85%
    02:00 -4°C° 0.1 mm 6 mps 739 mmHg 85%
    03:00 -4°C° 0 mm 6 mps 739 mmHg 85%
    04:00 -5°C° 0 mm 5 mps 738 mmHg 85%
    05:00 -5°C° 0 mm 5 mps 738 mmHg 85%
    06:00 -5°C° 0 mm 5 mps 738 mmHg 85%
    07:00 -5°C° 0 mm 5 mps 737 mmHg 86%
    08:00 -5°C° 0 mm 6 mps 737 mmHg 86%
    09:00 -5°C° 0 mm 5 mps 737 mmHg 84%
    10:00 -4°C° 0 mm 5 mps 736 mmHg 82%
    11:00 -4°C° 0 mm 5 mps 736 mmHg 80%
    12:00 -4°C° 0.1 mm 5 mps 735 mmHg 81%
    13:00 -3°C° 0.1 mm 4 mps 734 mmHg 81%
    14:00 -2°C° 0.1 mm 4 mps 733 mmHg 81%
    15:00 -3°C° 0.1 mm 4 mps 733 mmHg 83%
    16:00 -2°C° 0.1 mm 3 mps 733 mmHg 85%
    17:00 -2°C° 0.1 mm 3 mps 732 mmHg 87%
    18:00 -4°C° 0 mm 3 mps 732 mmHg 89%
    19:00 -4°C° 0 mm 3 mps 732 mmHg 90%
    20:00 -5°C° 0 mm 3 mps 732 mmHg 91%
    21:00 -5°C° 0 mm 3 mps 733 mmHg 90%
    22:00 -5°C° 0 mm 3 mps 733 mmHg 89%
    23:00 -5°C° 0 mm 3 mps 733 mmHg 88%
    Show more